Theta_e
293 293 291 291 289 289 288 288 289 289 289 289 288 287 287 285 285 284 284 283 282 282
289 289 287 287 287 286 286 286 285 285 284 284 284 284 283 282 280 280 280 280 280 279
284 283 283 283 282 282 282 282 282 282 281 281 281 281 281 279 279 279 279 278 278 278
280 281 281 280 280 280 280 280 279 279 279 279 279 279 279 278 278 277 277 278 277 276
279 279 278 278 278 279 278 279 279 279 278 278 278 278 277 276 276 276 275 276 275 274
278 278 278 278 278 278 278 277 277 277 276 276 276 276 276 276 275 274 273 273 272 273
278 278 278 278 278 278 278 278 277 276 275 275 274 274 273 273 271 271 272 272 272 272
278 278 277 277 277 277 277 277 278 277 277 277 275 274 272 272 271 271 270 271 272 271
276 277 276 276 276 276 276 276 276 276 276 276 277 279 277 273 271 271 270 270 270 271
275 274 274 275 274 274 273 274 274 276 276 276 277 279 277 276 273 272 270 269 269 269
273 272 273 273 272 272 272 272 272 273 276 276 277 278 277 275 272 271 270 268 268 268
271 271 271 271 271 271 271 271 272 273 273 274 275 278 276 274 271 270 269 268 267 267
271 270 270 270 271 272 272 272 272 272 272 272 273 277 277 273 271 268 267 267 267 269
271 270 271 271 271 270 270 270 270 270 271 270 272 273 276 275 271 268 266 265 264 265
Wind_Speed
16 9 12 13 12 13 13 12 14 16 17 18 16 16 17 15 14 14 14 18 14 8
16 17 16 17 15 14 15 13 18 19 18 19 19 18 17 15 16 18 11 15 12 9
19 20 18 18 21 20 18 18 19 19 19 21 19 17 16 16 16 15 11 10 14 12
21 21 19 20 18 19 20 19 20 19 19 19 18 14 16 17 17 18 15 13 13 13
24 21 21 20 20 19 21 18 18 18 19 18 17 16 18 18 16 16 14 13 13 12
23 21 21 20 21 20 21 19 20 18 18 17 16 17 15 15 15 14 12 11 11 10
22 21 20 18 19 20 19 19 17 17 17 17 15 15 13 13 13 11 10 11 11 11
20 20 20 19 20 19 19 17 14 16 15 13 13 9 12 11 9 10 11 9 10 11
18 19 18 17 17 17 17 17 14 15 14 14 11 23 22 12 10 10 11 10 7 8
17 17 15 15 16 17 16 13 13 14 15 14 13 21 22 19 10 9 9 11 10 10
14 15 14 16 15 13 11 12 11 13 13 14 15 22 20 16 10 9 10 11 11 10
11 12 12 13 11 10 11 12 11 11 12 13 14 24 19 13 9 10 10 10 10 9
10 11 12 11 10 8 9 10 10 12 11 11 11 20 21 15 8 7 6 7 10 16
9 10 9 9 9 8 9 8 8 9 10 12 10 11 20 21 9 7 6 7 7 7
Wind_Direction
73 71 72 74 80 78 72 68 68 69 69 77 75 78 79 74 70 70 67 70 62 58
74 74 75 73 73 75 78 76 72 69 70 70 69 67 75 81 74 66 59 65 67 62
73 70 72 75 72 73 74 70 71 72 71 68 67 68 70 75 73 75 68 60 58 52
72 70 70 71 71 74 74 71 72 71 71 73 72 72 76 74 77 73 69 63 64 62
79 77 74 74 73 73 75 68 72 71 73 74 73 68 72 73 73 72 68 66 63 56
76 76 74 76 76 71 73 67 66 67 69 70 71 73 65 74 75 76 71 66 60 50
74 75 74 72 76 73 73 73 75 70 71 70 68 71 75 72 68 70 70 65 55 44
77 76 76 73 72 76 73 74 74 78 74 80 79 75 69 71 72 67 65 55 56 47
71 71 70 73 74 73 71 70 66 68 72 71 71 75 76 75 73 64 58 52 40 41
66 72 68 70 68 61 63 68 65 67 68 63 61 65 66 62 62 66 58 55 39 28
63 66 63 63 66 68 69 66 62 58 61 65 59 54 55 61 61 56 55 47 35 18
59 69 69 68 68 67 69 64 60 58 55 58 55 50 50 48 48 48 41 37 27 4
57 64 67 65 63 70 72 70 60 56 48 52 43 43 41 43 38 38 34 26 18 7
64 65 67 70 59 66 75 77 65 63 52 43 31 26 38 35 24 33 22 17 6 356